Regional Weather Roundup
Issued by NWS

Home | Current Version | Previous Version | Graphics & Text | Print | Product List | Glossary Off
Versions: 1 2 3 4 5 6 7 8 9 10 11 12 13 14 15 16 17 18 19 20 21 22 23 24 25 26 27 28 29 30 31 32 33 34 35 36 37 38 39 40 41 42 43 44 45 46 47 48 49 50

000
ASUS43 KDTX 202001
RWRMI
MICHIGAN HOURLY REGIONAL WEATHER ROUNDUP
NATIONAL WEATHER SERVICE DETROIT/PONTIAC MI
400 PM EDT SUN AUG 20 2017

NOTE: "FAIR" INDICATES FEW OR NO CLOUDS BELOW 12,000 FEET WITH NO
SIGNIFICANT WEATHER AND/OR OBSTRUCTION TO VISIBILITY.

MIZ047>049-052>055-059>063-066>070-074>076-081>083-202100-
SOUTHEAST LOWER MICHIGAN

CITY           SKY/WX    TMP DP  RH WIND       PRES   REMARKS
ADRIAN         CLOUDY    82  59  45 SW7       30.07F
ALMA           CLOUDY    81  56  43 SW5G17    30.05F
ANN ARBOR      CLOUDY    85  58  39 S8        30.05F
BAD AXE        CLOUDY    81  57  43 SW7       30.06F
CARO           CLOUDY    82  53  37 S7        30.05S
DETROIT CITY   SUNNY     83  58  42 S12       30.06F
DETROIT        PTSUNNY   84  61  45 S8        30.07F
FLINT          CLOUDY    82  59  45 W9        30.05F
GROSSE ILE     CLOUDY    79  67  66 SE7       30.06F
HILLSDALE      PTSUNNY   82  63  51 S6        30.07F
HOWELL         CLOUDY    82  58  44 SW7       30.06F

CITY           SKY/WX    TMP DP  RH WIND       PRES   REMARKS
JACKSON        MOSUNNY   83  58  42 W7        30.06F
LAMBERTVILLE   CLOUDY    84  60  44 S7        30.05F
LANSING        PTSUNNY   83  59  44 VRB6      30.05F
LAPEER         FAIR      83  55  38 S9        30.06F
MASON          MOSUNNY   85  59  41 W5        30.06F
MONROE         SUNNY     83  62  49 SE5       30.05F
MT. CLEMENS    PTSUNNY   82  61  49 S14       30.04F
PONTIAC        CLOUDY    82  57  42 VRB6      30.05F
PORT HOPE        N/A     82  60  47 SW8       30.03F
PORT HURON     SUNNY     84  61  45 S7        30.07F
TRI CITIES     CLOUDY    82  59  45 SW8       30.05F
MIDLAND        FAIR      83  60  46 SW7       30.04S
TROY           SUNNY     85  54  34 SW8       30.07F
SAGINAW HB     CLOUDY    82  55  39 SW9       30.04F
$$
MIZ043>046-050>051-056>058-064>065-071>073-077>080-202100-
SOUTHWEST LOWER MICHIGAN

CITY           SKY/WX    TMP DP  RH WIND       PRES   REMARKS
BATTLE CREEK   CLOUDY    84  60  44 VRB3      30.06F
BENTON HARBOR  CLOUDY    87  56  34 NW3       30.02F
BIG RAPIDS     CLOUDY    78  59  51 SW8       30.04F
COLDWATER      SUNNY     85  58  38 W8        30.06F
FREMONT        FAIR      80  60  49 S8        30.03F
HOLLAND        MOSUNNY   83  62  49 S5        30.04F
GRAND RAPIDS   PTSUNNY   82  60  47 S6        30.04F
IONIA          FAIR      82  56  41 W6        30.05F
KALAMAZOO      SUNNY     87  56  34 W7        30.05F
LUDINGTON      CLOUDY    77  62  59 SW12      30.02F
MARSHALL       MOSUNNY   84  61  45 W8        30.06F
MOUNT PLEASANT CLOUDY    84  58  41 W7        30.03F
MUSKEGON       PTSUNNY   81  59  47 SW9       30.04F
SOUTH HAVEN    SUNNY     85  59  40 W3        30.03F
$$
MIZ016>042-202100-
NORTHERN LOWER MICHIGAN

CITY           SKY/WX    TMP DP  RH WIND       PRES   REMARKS
ALPENA         SUNNY     84  58  40 W12       29.99F
BEAVER ISLAND  CLOUDY    76  63  63 SW10G20   29.98F
BELLAIRE       MOSUNNY   80  57  45 SW7       29.99F
CADILLAC       CLOUDY    81  57  44 SW12      30.04F
CHARLEVOIX     CLOUDY    79  63  58 SW5       30.01F
FRANKFORT      CLOUDY    77  63  62 SW13      30.00F
GAYLORD        MOSUNNY   79  56  45 SW12      30.02F
GRAYLING       MOSUNNY   80  55  42 SW10G18   30.03F
HARBOR SPRINGS CLOUDY    78  62  58 W8        29.98F
HOUGHTON LAKE  MOSUNNY   79  60  52 SW9       30.05F
MANISTEE       MOSUNNY   79  64  60 S10G17    30.00F
OSCODA         CLOUDY    82  62  51 S13       30.01S
PELLSTON       CLOUDY    80  63  55 SW7       29.99F
ROGERS CITY    PTSUNNY   79  62  56 SW5       29.99F
TRAVERSE CITY  CLOUDY    83  60  45 SW10G18   29.97F
$$
MIZ007>008-015-202100-
EASTERN UPPER MICHIGAN

CITY           SKY/WX    TMP DP  RH WIND       PRES   REMARKS
KINROSS        MOSUNNY   78  61  55 SW10G18   29.97F
MACKINAC ISLAN SUNNY     74  64  71 W10G18    29.98F
NEWBERRY       SUNNY     76  63  62 S17G25    29.94F
S. S. MARIE    PTSUNNY   81  61  50 SW18G26   29.95F
MUNISING         N/A     81  65  58 S10G22    29.88F
$$
MIZ004>006-011>014-085-202100-
CENTRAL UPPER MICHIGAN

CITY           SKY/WX    TMP DP  RH WIND       PRES   REMARKS
MANISTIQUE     MOSUNNY   73  66  81 S9G16     29.95F
ESCANABA       CLOUDY    77  66  68 S18G24    29.92F
MENOMINEE      CLOUDY    79  65  62 SW13      29.95F
SAWYER-GWINN   SUNNY     79  63  57 S16       29.91F
$$
MIZ001>003-009>011-084-202100-
WESTERN UPPER MICHIGAN

CITY           SKY/WX    TMP DP  RH WIND       PRES   REMARKS
IRON MOUNTAIN  SUNNY     82  63  52 S17G24    29.91F
HOUGHTON       MOSUNNY   81  62  52 SW8       29.84F
COPPER HARBOR    N/A     80  62  54 W8        29.81F
IRONWOOD       PTSUNNY   79  68  69 W13       29.89S
$$

ABBREVIATIONS USED IN REMARKS
   TC - TEMPERATURE IN CELSIUS
  WCI - WIND CHILL INDEX
   HX - HEAT INDEX
  VSB - VISIBILITY




USA.gov is the U.S. government's official web portal to all federal, state and local government web resources and services.